If you wish to contribute or participate in the discussions about articles you are invited to join SKYbrary as a registered user

 Actions

Le Havre Octeville Airport

From SKYbrary Wiki

LFOH
Airport
ICAO: LFOH – IATA: LEH
Summary
Name Le Havre Octeville Airport
Region Europe
Territory France FR.gif
Location , Haute-Normandie
Serving Le Havre
Elevation 95.402 m
313 ft
313 ft95.402 m
Type medium airport
Coordinates 49° 32' 2.00" N, 0° 5' 17.00" E
Runways
Designator Length Width Surface ROPS
5/23 2300 m7,545.932 ft
40 m131.234 ft
ASP /


METAR
Observation LFOH 110730Z AUTO 25010KT CAVOK 07/06 Q1010 NOSIG
Station La Heve
Date/Time 11 December 2019 07:30:00
Wind direction 250°
Wind speed 10 kts
Lowest cloud amount clouds and visibility OK
Temperature 7°C
Dew point 6°C
Humidity 93%
QNH 1010 hPa
Weather condition n/a